Location: Ariel
(45.9570°N, 122.5700°W)
Time: 22:09:04
(UTC-07:00)

Altair - Visible Passes

Search period start: 30 October 2020 00:00
Search period end: 08 November 2020 23:00
Orbit: 1502 x 1682 km, 47.2° (Epoch: 30 October)

Date Brightness Start Highest point End Pass type
(mag) Time Alt. Az. Time Alt. Az. Time Alt. Az.
30 Oct 8.9 03:58:44 22° SSE 04:01:14 24° SE 04:08:14 10° E visible
30 Oct 7.8 05:56:48 15° SW 06:04:33 65° SSE 06:13:58 10° ENE visible
31 Oct 8.9 03:35:28 22° SE 03:36:13 22° SE 03:42:49 10° E visible
31 Oct 7.8 05:33:32 24° SW 05:39:26 61° SSE 05:48:45 10° ENE visible
01 Nov 9.1 02:12:08 20° ESE 02:12:08 20° ESE 02:17:22 10° E visible
01 Nov 7.8 04:10:11 34° SSW 04:14:19 58° SSE 04:23:32 10° ENE visible
01 Nov 7.6 06:09:27 10° W 06:18:49 86° N 06:28:34 10° E visible
02 Nov 9.3 01:48:43 16° ESE 01:48:43 16° ESE 01:51:50 10° E visible
02 Nov 7.8 03:46:46 44° S 03:49:13 55° SE 03:58:19 10° ENE visible
02 Nov 7.5 05:44:49 12° WSW 05:53:37 88° NNW 06:03:19 10° E visible
03 Nov 9.5 01:25:14 12° E 01:25:14 12° E 01:26:13 10° E visible
03 Nov 7.8 03:23:16 50° SSE 03:24:07 51° SE 03:33:06 10° ENE visible
03 Nov 7.5 05:21:19 20° WSW 05:28:26 89° NNW 05:38:05 10° ENE visible
04 Nov 8.0 02:59:43 47° SE 02:59:43 47° SE 03:07:52 10° ENE visible
04 Nov 7.4 04:57:46 29° WSW 05:03:15 89° SSE 05:12:52 10° ENE visible
05 Nov 8.3 02:36:08 39° ESE 02:36:08 39° ESE 02:42:38 10° ENE visible
05 Nov 7.4 04:34:09 41° WSW 04:38:04 87° SSE 04:47:38 10° ENE visible
06 Nov 8.7 02:12:29 31° E 02:12:29 31° E 02:17:24 10° ENE visible
06 Nov 7.3 04:10:31 56° WSW 04:12:54 85° SSE 04:22:25 10° ENE visible
06 Nov 7.6 06:08:33 10° W 06:17:52 84° N 06:27:36 10° E visible
07 Nov 9.0 01:48:49 23° E 01:48:49 23° E 01:52:10 10° ENE visible
07 Nov 7.2 03:46:51 75° SW 03:47:44 82° SSE 03:57:13 10° ENE visible
07 Nov 7.5 05:44:53 17° W 05:52:40 84° N 06:02:21 10° E visible
08 Nov 9.4 01:25:07 16° E 01:25:07 16° E 01:26:54 10° ENE visible
08 Nov 7.4 03:23:09 76° ESE 03:23:09 76° ESE 03:32:00 10° ENE visible
08 Nov 7.5 05:21:11 24° W 05:27:28 83° N 05:37:07 10° E visible
